Flag for Germany Weather past 2 weeks in Gronau (Westfalen), North Rhine-Westphalia, Germany

Now
57 °F

Scattered clouds.


Feels Like: 56 °F
Forecast: 40 / 50 °F
Wind: 7 mph from Southwest

Location: Twenthe


UV Index: 3 (Moderate)

Visibility: 19 mi


Pressure: 30.17 "Hg

Humidity: 43%

Dew point: 35 °F

Location of Gronau (Westfalen)Location

Historic Weather in Gronau (Westfalen)

°F

Gronau (Westfalen) temperature yesterday

Maximum temperature yesterday: 58 °F (at 5:00 PM)
Minimum temperature yesterday: 28 °F (at 7:00 AM)
Average temperature yesterday: 44 °F

Past Weeks' High & Low Weather Summary

 TemperatureHumidityPressure
High72 °F (Apr 3, 4:00 PM)99% (Apr 6, 2:00 AM)30.47 "Hg (Apr 6, 2:00 AM)
Low28 °F (Apr 16, 7:00 AM)31% (Apr 16, 4:00 PM)29.60 "Hg (Apr 3, 6:00 PM)
Average52 °F73%30.03 "Hg
* Reported Apr 2 11:00 AM — Apr 17 11:00 AM, Gronau (Westfalen), Weather by CustomWeather, © 2014

Note: Actual official high and low records may vary slightly from our data, if they occured in-between our weather recording intervals... More about our weather records

Advertising

Historic Weather Conditions — Data for Previous 24 hours

 ConditionsComfort  
Time TempWeatherWind HumidityBarometerVisibility
11:00 AM
Apr 17
55 °FOvercast.7 mph45%30.20 "Hg19 mi
10:00 AM54 °FScattered clouds.7 mph49%30.22 "Hg25 mi
9:00 AM50 °FPassing clouds.6 mph54%30.23 "Hg25 mi
8:00 AM46 °FSunny.5 mph58%30.23 "Hg22 mi
7:00 AM44 °FPassing clouds.5 mph61%30.24 "Hg28 mi
6:00 AM45 °FPassing clouds.5 mph59%30.25 "Hg28 mi
5:00 AM46 °FPassing clouds.5 mph58%30.26 "Hg28 mi
4:00 AM47 °FClear.5 mph57%30.28 "Hg28 mi
3:00 AM46 °FClear.3 mph61%30.30 "Hg28 mi
2:00 AM45 °FClear.2 mph62%30.31 "Hg28 mi
1:00 AM37 °FClear.1 mph83%30.32 "Hg22 mi
12:00 AM38 °FClear.1 mph82%30.33 "Hg25 mi
11:00 PM
Apr 16
40 °FPassing clouds.1 mph76%30.34 "Hg28 mi
10:00 PM43 °FClear.1 mph71%30.36 "Hg28 mi
9:00 PM48 °FClear.2 mph58%30.36 "Hg28 mi
8:00 PM54 °FSunny.1 mph41%30.36 "Hg28 mi
7:00 PM57 °FSunny.2 mph36%30.37 "Hg25 mi
6:00 PM57 °FSunny.2 mph31%30.38 "Hg25 mi
5:00 PM58 °FSunny.2 mph32%30.40 "Hg25 mi
4:00 PM57 °FSunny.2 mph31%30.41 "Hg19 mi
3:00 PM56 °FSunny.2 mph33%30.43 "Hg22 mi
2:00 PM55 °FSunny.2 mph34%30.44 "Hg22 mi
1:00 PM54 °FSunny.2 mph39%30.45 "Hg19 mi
12:00 PM54 °FPassing clouds.2 mph44%30.46 "Hg17 mi
Weather by CustomWeather, © 2014

See weather overview